Location: Clinton NY
(43.0598°N, 75.3602°W)
Time: 23:36:06
(UTC-04:00)

Daily predictions for brighter satellites

Satellite Brightness Start Highest point End
(mag) Time Altitude Azimuth Time Altitude Azimuth Time Altitude Azimuth
Cosmos 2346 Rocket 4.4 19:06:15 10° N 19:12:19 69° E 19:18:19 10° SSE
Cosmos 1953 3.8 19:12:58 10° SE 19:15:30 16° E 19:18:02 10° NE
SL-19 R/B 4.4 19:12:56 10° SSE 19:18:32 81° ENE 19:24:29 10° NNW
Cosmos 1452 Rocket 4.3 19:15:36 10° N 19:20:19 32° ENE 19:25:00 10° SE
Cosmos 2219 Rocket 3.4 19:15:58 10° SW 19:21:23 48° WNW 19:26:51 10° NNE
Helios 1A 3.8 19:17:59 10° SE 19:21:37 30° ENE 19:25:17 10° N
CZ-2C R/B 4.4 19:19:02 10° SSW 19:23:33 35° W 19:27:59 10° NNW
METEOR-M 4.4 19:18:28 10° SE 19:23:33 46° ENE 19:28:40 10° N
DMSP B5D1-3 4.5 19:19:32 10° NNE 19:24:40 81° ESE 19:29:46 10° SSW
Cosmos 2278 Rocket 3.0 19:20:11 10° NNW 19:25:44 57° WSW 19:31:14 10° S
COSMO-SKYMED 1 2.9 19:21:24 10° N 19:25:46 73° WNW 19:30:04 10° SSW
Cosmos 1441 Rocket 4.0 19:22:27 10° NNW 19:26:09 56° W 19:29:48 10° S
Cosmos 1805 4.5 19:23:45 10° SE 19:26:44 21° E 19:29:44 10° NE
NOSS 3-2 (A) 3.6 19:21:04 10° SSW 19:26:55 52° ESE 19:33:15 10° NE
Meteor 1-22 Rocket 4.1 19:21:56 10° S 19:27:12 62° E 19:32:25 10° NNE
Cosmos 1378 3.2 19:24:51 10° N 19:28:32 53° E 19:32:10 10° SSE
H-2A R/B 4.5 19:26:21 10° ESE 19:28:45 16° ENE 19:31:09 10° NNE
Cosmos 2297 3.7 19:24:56 10° NNW 19:30:38 80° ENE 19:36:17 10° SSE
Meteor 1-28 Rocket 3.2 19:27:38 10° NNE 19:31:20 58° E 19:34:59 10° S
OAO 3 Rocket 4.4 19:27:29 10° SW 19:31:32 28° S 19:35:32 10° ESE
ALOS 3.3 19:27:43 10° ESE 19:31:33 26° ENE 19:35:24 10° NNE
USA 238 DEB 4.1 19:25:31 10° SW 19:32:32 70° NW 19:39:35 10° NNE
USA 238 4.1 19:25:36 10° SW 19:32:38 71° NW 19:39:42 10° NNE
ATLAS CENTAUR R/B 3.7 19:27:55 10° SSW 19:32:44 57° ESE 19:47:28 10° NE
CZ-4B DEB 4.3 19:33:11 11° ESE 19:35:26 19° ENE 19:37:49 10° NNE
CZ-4C R/B 2.9 19:30:13 10° SW 19:35:31 58° NW 19:41:31 10° NNE
Meteor 1-24 Rocket 3.7 19:30:34 10° N 19:36:17 88° E 19:41:45 10° S
Cosmos 1707 4.0 19:34:53 10° NNW 19:38:35 46° W 19:42:16 10° SSW
Cosmos 2369 Rocket 3.7 19:40:18 10° N 19:44:14 19° NE 19:47:06 13° E
Cosmos 2034 Rocket 4.2 19:39:02 10° SSE 19:44:59 49° E 19:51:02 10° NNE
SAR-Lupe-4 4.4 19:42:27 10° S 19:45:56 53° W 19:49:27 10° NNW
Cosmos 1766 Rocket 3.7 19:42:04 10° N 19:46:23 51° ENE 19:50:36 10° SSE
SJ-6B 3.2 19:43:21 10° S 19:47:17 69° WSW 19:51:21 10° NNW
Cosmos 1464 Rocket 3.9 19:41:18 10° S 19:47:29 69° E 19:53:38 10° NNE
Timation 1 Rocket 4.3 19:41:40 10° NNW 19:47:40 80° ENE 19:53:38 10° SSE
Cosmos 1603 4.4 19:43:59 10° SSE 19:49:01 33° ESE 19:54:05 10° NE
FREGAT/IRIS 2.8 19:46:07 10° S 19:49:12 76° WSW 19:52:19 10° NNW
Cosmos 1437 4.3 19:47:14 10° NNW 19:50:20 39° W 19:53:24 10° SSW
Cosmos 1943 Rocket 4.2 19:50:13 10° NNE 19:51:37 11° NE 19:53:01 10° NE
Cosmos 1758 3.5 19:52:50 10° SSE 19:56:46 49° E 20:00:45 10° NNE
NOSS 3-3 (A) 4.5 19:50:10 10° NW 19:57:38 86° NE 20:05:36 10° SE
NOSS 3-3 (C) 4.5 19:50:16 10° NW 19:57:44 85° NE 20:05:42 10° SE
Cosmos 2333 Rocket 4.1 19:55:37 10° WSW 20:00:46 33° NW 20:05:57 10° N
Spot 2 Rocket 3.5 19:57:20 10° SSE 20:02:22 89° WSW 20:07:27 10° NNW
Cosmos 1076 Rocket 3.5 19:58:58 10° N 20:03:18 84° W 20:07:39 10° S
NOSS 3-2 (C) 3.4 19:58:25 10° SSW 20:04:27 76° ESE 20:11:06 10° NE
FengYun 1-2 T 4.1 19:59:02 10° SSE 20:04:31 74° ENE 20:10:01 10° N
CENTAUR R/B 3.5 20:00:26 10° SSE 20:04:47 21° ESE 20:05:41 20° E
ASTEX 1 3.8 20:00:22 10° NNE 20:04:58 38° E 20:09:31 10° SSE
Helios 1B rocket 2.3 20:01:25 10° NNE 20:05:32 81° ESE 20:09:38 10° S
Cosmos-2242 3.0 20:04:49 10° S 20:09:06 61° E 20:13:27 10° NNE
Envisat 4.3 20:13:04 20° ENE 20:13:31 20° ENE 20:17:09 10° NNE
In-Cosmos 22 4.3 20:08:14 10° N 20:14:02 86° W 20:19:48 10° S
Cosmos 1674 3.3 20:12:48 10° N 20:16:26 37° ENE 20:16:58 35° E
Meteor 1-21 Rocket 4.1 20:13:46 10° N 20:19:21 79° ENE 20:24:53 10° SSE
Cosmos 1842 Rocket 4.0 20:18:06 26° SE 20:19:47 37° E 20:23:48 10° NNE
Cosmos 1500 Rocket 3.9 20:16:23 10° N 20:20:37 43° ENE 20:21:56 33° ESE
Cosmos 1408 Rocket 4.0 20:16:49 10° NNW 20:21:08 61° W 20:25:22 10° S
Cosmos 2151 4.3 20:21:26 10° NNE 20:24:01 23° NE 20:24:01 23° NE
Cosmos 2237 Rocket 4.5 20:22:09 10° WSW 20:26:47 25° NW 20:31:25 10° N
Cosmos 1346 2.8 20:25:03 10° N 20:28:02 84° ENE 20:28:07 82° ESE
ATLAS CENTAUR R/B 4.1 20:26:17 10° WNW 20:28:37 15° WSW 20:30:51 10° SW
Resurs 01 Rocket 2.9 20:28:30 10° S 20:32:43 42° W 20:36:58 10° NNW
Resurs 1-3 4.4 20:30:00 10° S 20:34:16 52° W 20:38:34 10° NNW
ATLAS 5 CENTAUR R/B 1.9 20:29:33 10° SW 20:34:20 78° NW 20:39:35 10° NE
USA 215 3.4 20:31:49 10° NE 20:38:22 76° NW 20:44:52 10° WSW
CZ-2D R/B 3.5 20:43:00 30° S 20:44:47 68° WSW 20:48:41 10° NNW
SL-16 R/B 3.7 20:40:38 10° WSW 20:45:51 37° WNW 20:51:07 10° N
Cosmos 1743 Rocket 3.9 20:44:18 10° NNW 20:48:43 66° W 20:51:26 22° S
Cosmos 1953 3.9 20:47:57 10° SW 20:51:39 36° WNW 20:55:21 10° N
ERS-1 Rocket 3.1 20:54:54 51° ENE 20:54:54 51° ENE 20:59:39 10° N
Nadezhda 4 Rocket 4.3 20:50:21 10° NNW 20:56:35 65° W 21:02:42 10° S
Cosmos 1655 Rocket 4.1 20:50:36 10° N 20:56:37 48° ENE 20:57:04 47° E
SeaSat 1 2.3 20:53:38 10° NNE 20:58:36 80° ESE 21:03:32 10° SSW
GP-B 3.0 20:57:01 10° N 21:01:21 83° NE 21:01:21 83° NE
BREEZE-M DEB (TANK) 3.2 20:50:03 10° W 21:01:30 72° N 21:02:28 55° ENE
Cosmos 1092 Rocket 4.0 20:56:23 10° N 21:02:37 80° W 21:06:37 23° S
H-2A R/B 3.9 21:01:10 28° SSW 21:02:44 41° W 21:06:27 10° NNW
Cosmos 839 Rocket 4.2 20:59:21 10° NNW 21:07:13 71° NE 21:08:43 55° ESE
Cosmos 2142 Rocket 4.4 21:02:43 19° S 21:07:31 77° E 21:13:56 10° N
ALOS 3.8 21:04:36 10° SSW 21:08:50 34° W 21:13:07 10° NNW
Cosmos 1634 Rocket 3.9 21:11:45 10° S 21:18:01 84° W 21:24:16 10° N
Cosmos 2026 Rocket 3.8 21:12:09 10° N 21:18:17 78° E 21:18:46 73° SE
Cosmos 1470 4.2 21:24:32 36° WNW 21:24:32 36° WNW 21:27:39 10° N
Cosmos 2369 Rocket 2.2 21:23:16 10° NNW 21:28:54 79° WSW 21:28:54 79° WSW
H-2A R/B 4.0 21:31:47 22° N 21:31:47 22° N 21:33:30 10° N
Cosmos 2263 4.3 21:25:33 10° NNW 21:30:46 71° N 21:30:46 71° N
Cosmos 1943 Rocket 2.9 21:31:11 10° NNW 21:35:15 43° NNE 21:35:15 43° NNE
H-2A R/B 4.4 21:53:25 14° NNE 21:53:25 14° NNE 21:54:13 10° N
Envisat 4.0 21:53:17 44° NW 21:53:17 44° NW 21:57:07 10° NNW
CENTAUR R/B 2.9 21:48:27 10° SW 21:59:44 19° NNE 22:01:30 10° NE
ATLAS 5 CENTAUR R/B 4.5 22:16:36 10° WNW 22:19:59 18° NNW 22:23:35 10° NNE
